Regional Weather Roundup
Issued by NWS Newport/Morehead, NC

Current Version | Previous Version | Graphics & Text | Print | Product List | Glossary On
Versions: 1 2 3 4 5 6 7 8 9 10 11 12 13 14 15 16 17 18 19 20 21 22 23 24 25 26 27 28 29 30 31 32 33 34 35 36 37 38 39 40 41 42 43 44 45 46 47 48 49 50
000 ASUS42 KMHX 031725 RWRMHX WEATHER ROUNDUP FOR EASTERN NORTH CAROLINA NATIONAL WEATHER SERVICE NEWPORT/MOREHEAD CITY NC 100 PM EDT MON AUG 03 2015 NOTE: "FAIR" INDICATES FEW OR NO CLOUDS BELOW 12,000 FEET WITH NO SIGNIFICANT WEATHER AND/OR OBSTRUCTIONS TO VISIBILITY NCZ015>017-031-032-045>047-102-103-031800- NORTH COAST CITY SKY/WX TMP DP RH WIND PRES REMARKS EDENTON N/A 85 73 69 S10 29.94S ELIZABETH CITY PTSUNNY 84 75 74 S12 29.93F KITTY HAWK CLOUDY 81 72 73 SW7 29.94F MANTEO CLOUDY 79 71 77 SW17 29.95F $$ NCZ045>047-081-094-103-104-031800- CENTRAL COAST CITY SKY/WX TMP DP RH WIND PRES REMARKS FRISCO RAIN 74 71 91 S10 30.01S SWANQUARTER N/A 77 N/A N/A S16 29.91F $$ NCZ095-097-098-100-101-031800- SOUTHERN COAST CITY SKY/WX TMP DP RH WIND PRES REMARKS BEAUFORT HVY RAIN 73 72 96 W13 29.99F FOG CEDAR ISLAND N/A 72 N/A N/A SW6G13 30.03S JACKSONVILLE PTSUNNY 80 74 81 S3 29.96F THUNDER PINEY ISLAND LGT RAIN N/A N/A N/A S7 29.99F WILMINGTON TSTM 74 70 87 W21G26 29.97R FOG $$ NCZ011>013-027>030-043-044-078>080-089-090>093-098-031800- COASTAL PLAIN CITY SKY/WX TMP DP RH WIND PRES REMARKS AHOSKIE SUNNY 87 67 51 CALM 29.92F CLINTON MOSUNNY 90 73 58 S6 29.93F ELIZABETHTOWN MOSUNNY 86 73 65 S10G16 29.95F GOLDSBORO MOSUNNY 88 72 58 W8 29.91F GREENVILLE PTSUNNY 90 72 55 SW3 29.95S HAVELOCK CLOUDY 73 70 90 S8 29.98F THUNDER KENANSVILLE MOSUNNY N/A N/A N/A S5 29.95S KINSTON MOSUNNY 88 72 58 SW8 29.94F NEW BERN PTSUNNY 78 72 81 S8 29.98S RICHLANDS PTSUNNY 84 72 65 SW8 29.96S ROCKY MOUNT MOSUNNY 91 69 48 S5 29.93F WASHINGTON MOSUNNY 86 74 67 S6 29.94F WHITEVILLE PTSUNNY 80 76 85 SW5 29.95F $$ AMZ130-135-150-152-154-156-158-170-250-252-270-ANZ085-086-088-633-658-670-031800- MARINE OBSERVATIONS STATION/POSITION TIME TEMP WIND PRES WAVE SWELL AIR SEA DIR/SP/G HT/PER HT/PER (UTC) (F) (DEG/KT/KT) (MB) (FT/S) (FT/S) CHESAPEAKE LIGHT 1700 80 180/ 17/ 18 1013.6 64 E VA BEACH 1650 79 81 210/ 17/ 19 1013.6 4/ 5 2/11 DUCK 1700 79 65 200/ 14/ 17 1012.9 2 E DUCK 1611 79 N/A 2/12 2/12 OREGON INLET 1700 77 82 210/ 18/ 22 1014.2 13E OREGON INLT 1700 80 N/A 4/ 6 2/11 HATTERAS CG 1700 73 81 170/ 9/ 12 1015.6 DIAMOND BUOY 1650 73 84 250/ 6/ 10 1016.6 3/ 6 3/ 6 CAPE LOOKOUT 1700 73 320/ 7/ 10 1015.6 BEAUFORT LAB 1700 73 81 300/ 8/ 10 1015.3 30 SE NEW RVR IN NOT AVBL 27 SE WRIGHTSVLE 1700 76 82 220/ 19/ 21 N/A 5 SE WRIGHTSVLE NOT AVBL 225 S CAPE HAT 1650 83 81 200/ 14/ 17 1017.6 5/ 6 2/11 41 SE CHARLESTON 1650 84 83 200/ 10/ 12 1013.9 4/ 7 3/ 7 $$

USA.gov is the U.S. government's official web portal to all federal, state and local government web resources and services.